Tracking 26442 objects as of 6-Dec-2022
HD Live streaming from Space Station
objects crossing your sky now

COSMOS 1375 DEB

Track COSMOS 1375 DEB now!
10-day predictions


NORAD ID: 16385
Int'l Code: 1982-055Z
Perigee: 932.4 km
Apogee: 978.3 km
Inclination: 65.8 °
Period: 104.0 minutes
Semi major axis: 7326 km
RCS: 0.0186 m2 (small)
Launch date: June 6, 1982
Source: Commonwealth of Independent States (former USSR) (CIS)
Launch site: PLESETSK MISSILE AND SPACE COMPLEX (PKMTR)

Note: This is SATELLITE DEBRIS
aabbcc
Your satellite tracking list
Your tracking list is empty




NASA's NSSDC Master Catalog

Two Line Element Set (TLE):
1 16385U 82055Z   22339.68610793  .00000513  00000-0  52928-3 0  9990
2 16385  65.8281 170.1893 0031284 217.5807 213.4925 13.84428148867631
Source of the keplerian elements: AFSPC